TimeEST,TemperatureF,Dew PointF,Humidity,Sea Level PressureIn,VisibilityMPH,Wind Direction,Wind SpeedMPH,Gust SpeedMPH,PrecipitationIn,Events,Conditions,WindDirDegrees,DateUTC
12:00 AM,30.2,28.4,93,29.83,5.0,NW,4.6,-,N/A,Snow,Light Snow,310,2013-03-02 05:00:00
1:00 AM,30.2,28.4,93,29.82,10.0,WNW,4.6,-,N/A,Snow,Light Snow,300,2013-03-02 06:00:00
2:00 AM,30.2,26.6,86,29.81,25.0,West,4.6,-,N/A,Snow,Light Snow,260,2013-03-02 07:00:00
3:00 AM,30.2,26.6,86,29.81,25.0,WSW,4.6,-,N/A,Snow,Light Snow,250,2013-03-02 08:00:00
3:48 AM,30.2,26.6,86,29.81,25.0,WSW,4.6,-,N/A,,Overcast,250,2013-03-02 08:48:00
4:00 AM,30.2,26.6,86,29.80,25.0,West,5.8,-,N/A,,Overcast,260,2013-03-02 09:00:00
5:00 AM,30.2,26.6,86,29.80,25.0,West,5.8,-,N/A,,Overcast,280,2013-03-02 10:00:00
6:00 AM,30.2,24.8,80,29.81,25.0,West,4.6,-,N/A,,Overcast,270,2013-03-02 11:00:00
7:00 AM,30.2,24.8,80,29.81,45.0,NW,5.8,-,N/A,,Overcast,310,2013-03-02 12:00:00
8:00 AM,28.4,23.0,80,29.83,45.0,NW,8.1,-,N/A,,Mostly Cloudy,320,2013-03-02 13:00:00
9:00 AM,28.4,21.2,74,29.83,45.0,North,10.4,-,N/A,,Overcast,360,2013-03-02 14:00:00
10:00 AM,30.2,21.2,69,29.83,45.0,North,6.9,-,N/A,,Mostly Cloudy,350,2013-03-02 15:00:00
11:00 AM,30.2,21.2,69,29.82,45.0,West,5.8,-,N/A,,Mostly Cloudy,270,2013-03-02 16:00:00
12:00 PM,30.2,23.0,75,29.81,45.0,SW,4.6,-,N/A,,Mostly Cloudy,230,2013-03-02 17:00:00
1:00 PM,30.2,21.2,69,29.80,45.0,SW,10.4,-,N/A,,Overcast,220,2013-03-02 18:00:00
2:00 PM,30.2,21.2,69,29.80,45.0,SW,10.4,-,N/A,,Overcast,230,2013-03-02 19:00:00
3:00 PM,30.2,21.2,69,29.79,20.0,WSW,5.8,-,N/A,,Overcast,240,2013-03-02 20:00:00
3:14 PM,30.2,21.2,69,29.79,10.0,WSW,11.5,-,N/A,Snow,Light Snow Showers,240,2013-03-02 20:14:00
4:00 PM,30.2,26.6,86,29.80,4.0,NNE,4.6,-,N/A,Snow,Light Snow Showers,30,2013-03-02 21:00:00
5:00 PM,28.4,26.6,93,29.81,4.0,North,4.6,-,N/A,Snow,Light Snow Showers,360,2013-03-02 22:00:00
6:00 PM,28.4,24.8,86,29.83,10.0,NW,4.6,-,N/A,Snow,Light Snow Showers,320,2013-03-02 23:00:00
6:43 PM,28.4,24.8,86,29.83,3.0,NW,4.6,-,N/A,Snow,Light Snow Showers,310,2013-03-02 23:43:00
7:00 PM,28.4,24.8,86,29.83,3.0,NW,3.5,-,N/A,Snow,Light Snow Showers,310,2013-03-03 00:00:00
7:42 PM,26.6,24.8,93,29.83,10.0,WSW,3.5,-,N/A,Snow,Light Snow Showers,240,2013-03-03 00:42:00
7:52 PM,26.6,24.8,93,29.82,20.0,WSW,3.5,-,N/A,,Overcast,240,2013-03-03 00:52:00
8:00 PM,26.6,24.8,93,29.82,20.0,WSW,4.6,-,N/A,,Overcast,240,2013-03-03 01:00:00
8:49 PM,26.6,23.0,86,29.82,15.0,West,5.8,-,N/A,Snow,Light Snow Showers,260,2013-03-03 01:49:00
9:00 PM,26.6,23.0,86,29.83,6.0,West,4.6,-,N/A,Snow,Light Snow Showers,260,2013-03-03 02:00:00
10:00 PM,24.8,23.0,93,29.81,1.5,WSW,4.6,-,N/A,Snow,Light Snow,250,2013-03-03 03:00:00
11:00 PM,24.8,23.0,93,29.81,2.0,WSW,4.6,-,N/A,Snow,Light Snow,250,2013-03-03 04:00:00